Flag for Germany Weather past 2 weeks in Balingen, Baden-Württemberg, Germany

Now
64 °F

Clear.


Feels Like: 64 °F
Forecast: 52 / 65 °F
Wind: 3 mph from Northwest

Location: Stuttgart-Echterdingen

Current Time: Sep 1, 2015 at 7:07:45 AM

Latest Report: Sep 1, 2015 at 6:20 AM


Visibility: 10 mi

Pressure: 29.86 "Hg (28.09 "Hg at 520m altitude)

Humidity: 78%

Dew point: 57 °F

Location of BalingenLocation

Historic Weather in Balingen — Graph

°F

Balingen temperature yesterday

Maximum temperature yesterday: 91 °F (at 3:50 PM)
Minimum temperature yesterday: 64 °F (at 4:50 AM)
Average temperature yesterday: 78 °F

Past Weeks' High & Low Weather Summary

 TemperatureHumidityPressure
High91 °F (Aug 30, 2:20 PM)100% (Aug 18, 6:50 AM)30.27 "Hg (Aug 18, 6:50 AM)
Low48 °F (Aug 18, 5:20 AM)20% (Aug 31, 5:20 PM)29.71 "Hg (Aug 24, 1:50 PM)
Average67 °F67%30.04 "Hg
* Reported Aug 17 5:20 AM — Sep 1 5:20 AM, Balingen, Weather by CustomWeather, © 2015

Note: Actual official high and low records may vary slightly from our data, if they occured in-between our weather recording intervals... More about our weather records

Advertising

Balingen weather history for previous 24 hours

 ConditionsComfort  
Time TempWeatherWind HumidityBarometerVisibility
5:20 AM
Tue, Sep 1
64 °FClear.5 mph78%29.86 "Hg10 mi
4:50 AM64 °FClear.2 mph73%29.89 "Hg10 mi
4:20 AM66 °FClear.2 mph68%29.89 "Hg10 mi
3:50 AM66 °FPassing clouds.3 mph68%29.89 "HgN/A
3:20 AM68 °FClear.1 mph60%29.89 "Hg10 mi
2:50 AM68 °FClear.6 mph64%29.89 "Hg10 mi
2:20 AM68 °FClear.1 mph64%29.89 "Hg10 mi
1:50 AM68 °FClear.2 mph64%29.92 "Hg10 mi
1:20 AM70 °FPassing clouds.7 mph60%29.92 "HgN/A
12:50 AM70 °FClear.1 mph57%29.89 "Hg10 mi
12:20 AM70 °FClear.5 mph57%29.89 "Hg10 mi
11:50 PM
Mon, Aug 31
73 °FClear.6 mph50%29.89 "Hg10 mi
11:20 PM73 °FClear.6 mph50%29.92 "Hg10 mi
10:50 PM73 °FPassing clouds.5 mph50%29.92 "HgN/A
10:20 PM75 °FClear.3 mph44%29.92 "Hg10 mi
9:50 PM77 °FClear.5 mph42%29.89 "Hg10 mi
9:20 PM79 °FClear.7 mph39%29.92 "Hg10 mi
8:50 PM82 °FPassing clouds.6 mph32%29.89 "HgN/A
8:20 PM82 °FSunny.12 mph32%29.89 "Hg10 mi
7:50 PM86 °FPassing clouds.5 mph31%29.89 "HgN/A
7:20 PM88 °FPassing clouds.5 mph29%29.89 "HgN/A
6:50 PM90 °FPassing clouds.6 mph27%29.89 "HgN/A
6:20 PM90 °FPassing clouds.9 mph26%29.89 "HgN/A
5:50 PM91 °FPassing clouds.8 mph24%29.89 "HgN/A
5:20 PM91 °FPassing clouds.7 mph20%29.89 "HgN/A
4:50 PM91 °FPassing clouds.9 mph23%29.92 "HgN/A
4:20 PM91 °FSunny.5 mph26%29.92 "Hg10 mi
3:50 PM91 °FSunny.6 mph28%29.92 "Hg10 mi
3:20 PM90 °FSunny.7 mph27%29.95 "Hg10 mi
2:50 PM90 °FPassing clouds.7 mph27%29.95 "HgN/A
2:20 PM90 °FSunny.6 mph29%29.98 "Hg10 mi
1:50 PM90 °FSunny.3 mph27%29.98 "Hg10 mi
1:20 PM88 °FSunny.2 mph29%29.98 "Hg10 mi
12:50 PM88 °FSunny.3 mph31%29.98 "Hg10 mi
12:20 PM86 °FSunny.3 mph31%29.98 "Hg10 mi
11:50 AM86 °FPassing clouds.7 mph33%30.01 "HgN/A
11:20 AM84 °FPassing clouds.7 mph43%30.01 "HgN/A
10:50 AM82 °FPassing clouds.3 mph45%30.01 "HgN/A
10:20 AM81 °FSunny.2 mph51%30.01 "Hg10 mi
9:50 AM79 °FSunny.2 mph54%30.04 "Hg10 mi
9:20 AM75 °FSunny.2 mph65%30.04 "Hg10 mi
8:50 AM72 °FSunny.1 mph73%30.04 "Hg10 mi
8:20 AM68 °FSunny.2 mph83%30.01 "Hg10 mi
7:50 AM66 °FSunny.2 mph83%30.01 "Hg10 mi
7:20 AM66 °FClear.1 mph83%30.01 "Hg10 mi
Weather by CustomWeather, © 2015

See weather overviewHow to use our weather pages